FW5398 Weather Reports


time (UTC)temp
C
wind
direction
speed
KPH
gust
KPH
rain 1hr
cm
rain 24hr
cm
rain mn
cm
humidity
%
barometer
mb
20260508163117 5 309 4.8 9.7 0.00 2.03 0.03 86 1002.0
20260508161556 5 353 1.6 9.7 0.00 2.03 0.03 85 1002.1
20260508160053 5 347 3.2 9.7 0.00 2.03 0.03 86 1002.1
20260508154554 5 26 4.8 9.7 0.00 2.03 0.03 85 1002.1
20260508153054 5 350 6.4 12.9 0.00 2.03 0.03 86 1002.1
20260508151548 5 5 3.2 14.5 0.00 2.03 0.03 86 1001.9
20260508150045 5 336 4.8 9.7 0.00 2.03 0.03 86 1002.1
20260508144544 5 355 4.8 8.0 0.00 2.03 0.03 86 1002.1
20260508143042 5 288 3.2 8.0 0.00 2.03 0.03 85 1002.3
20260508141541 5 344 3.2 6.4 0.00 2.03 0.03 85 1002.5
20260508140039 5 324 3.2 8.0 0.00 2.03 0.03 86 1002.5
20260508134542 5 321 3.2 6.4 0.00 2.03 0.03 86 1002.6
20260508133045 6 286 3.2 6.4 0.00 2.03 0.03 86 1002.5
20260508131545 6 347 3.2 6.4 0.00 2.03 0.03 86 1002.4
20260508130047 6 338 0.0 4.8 0.00 2.03 0.03 86 1002.2
20260508124536 6 360 1.6 6.4 0.00 2.03 0.03 86 1002.0
20260508123038 6 343 3.2 8.0 0.00 2.03 0.03 86 1001.9
20260508121536 6 5 1.6 6.4 0.00 2.03 0.03 86 1002.0
20260508120034 6 360 0.0 6.4 0.00 2.03 0.03 86 1002.0
20260508114533 6 5 1.6 4.8 0.00 2.06 0.03 86 1001.8
20260508113040 6 22 0.0 1.6 0.00 2.06 0.03 86 1001.8
20260508111535 5 22 0.0 3.2 0.00 2.06 0.03 86 1002.1
20260508110046 5 79 0.0 1.6 0.00 2.06 0.03 86 1002.1
20260508104531 5 79 0.0 3.2 0.00 2.06 0.03 85 1002.4
20260508103036 4 79 0.0 3.2 0.00 2.06 0.03 85 1002.2
20260508101536 5 79 0.0 1.6 0.00 2.06 0.03 85 1002.2
20260508100030 5 79 0.0 1.6 0.03 2.06 0.03 85 1002.2
20260508094529 4 79 0.0 1.6 0.03 2.06 0.03 85 1001.8
20260508093043 5 79 0.0 0.0 0.03 2.06 0.03 85 1001.8
20260508091531 5 79 0.0 1.6 0.03 2.06 0.03 85 1001.6
20260508090034 4 79 0.0 1.6 0.00 2.03 0.00 85 1001.7
20260508084527 4 79 0.0 0.0 0.00 2.03 0.00 85 1001.7
20260508083027 4 79 0.0 1.6 0.00 2.03 0.00 85 1001.4
20260508081523 4 79 0.0 0.0 0.00 2.03 0.00 85 1001.4
20260508080033 5 79 0.0 3.2 0.00 2.03 0.00 85 1001.4
20260508074528 6 85 1.6 4.8 0.00 2.03 0.00 85 1001.4
20260508073023 6 106 0.0 3.2 0.00 2.03 0.00 85 1001.5
20260508071520 6 106 0.0 0.0 0.00 2.03 0.00 85 1001.5
20260508070018 6 106 0.0 1.6 0.00 2.03 0.00 86 1001.6
20260508064516 6 105 0.0 4.8 0.00 2.03 0.00 85 1001.6
20260508063016 6 95 4.8 12.9 0.00 2.03 0.00 86 1001.5
20260508061514 6 83 0.0 8.0 0.00 2.03 0.00 85 1001.7
20260508060013 5 341 0.0 8.0 0.00 2.03 0.00 85 1001.7
20260508054511 5 37 1.6 8.0 0.00 2.03 0.00 85 1001.9
20260508053011 5 44 1.6 11.3 0.00 2.03 0.00 85 1002.1
20260508051508 5 10 0.0 6.4 0.00 2.03 0.00 85 1002.2
20260508050006 5 36 1.6 6.4 0.00 2.03 0.00 85 1002.0
20260508044502 6 5 1.6 4.8 0.00 2.03 0.00 85 1001.9
20260508043059 7 41 1.6 6.4 0.00 2.03 0.00 86 1001.8
20260508041600 7 20 0.0 3.2 0.00 2.03 0.00 86 1001.9
20260508040057 6 348 0.0 1.6 0.00 2.03 0.00 85 1002.0
20260508034601 7 348 0.0 4.8 0.00 2.03 0.00 85 1001.9
20260508033049 8 77 0.0 1.6 0.00 2.03 0.00 86 1002.0
20260508031556 8 74 3.2 11.3 0.00 2.03 0.00 86 1001.9
20260508030054 8 101 9.7 12.9 0.00 2.03 0.00 86 1001.9
20260508024541 8 103 8.0 12.9 0.00 2.03 2.03 86 1002.0
20260508023045 8 70 3.2 11.3 0.00 2.03 2.03 86 1002.2
20260508021538 8 81 1.6 9.7 0.03 2.03 2.03 86 1002.3
20260508020036 8 133 0.0 3.2 0.05 2.03 2.03 86 1002.2
20260508014536 7 31 0.0 0.0 0.08 2.03 2.03 86 1002.8
20260508013037 7 35 0.0 6.4 0.10 2.03 2.03 86 1002.6
20260508011535 7 232 0.0 1.6 0.13 2.01 2.01 86 1002.5
20260508010040 7 232 0.0 4.8 0.15 1.98 1.98 86 1002.5
20260508004533 8 232 0.0 3.2 0.18 1.93 1.93 86 1002.6
20260508003032 8 232 0.0 6.4 0.28 1.93 1.93 86 1002.5
20260508001534 8 203 3.2 8.0 0.25 1.88 1.88 87 1002.4
20260508000031 8 186 6.4 17.7 0.20 1.83 1.83 86 1002.3
20260507234626 9 255 9.7 19.3 0.13 1.75 1.75 86 1002.1
20260507233024 10 256 8.0 12.9 0.03 1.65 1.65 86 1001.7
20260507231522 10 176 8.0 22.5 0.00 1.63 1.63 86 1001.7
20260507230021 10 180 14.5 25.7 0.00 1.63 1.63 84 1001.8
20260507224523 12 151 17.7 25.7 0.00 1.63 1.63 84 1001.0
20260507223017 12 177 19.3 30.6 0.00 1.63 1.63 85 1000.5
20260507221522 12 131 20.9 32.2 0.00 1.63 1.63 85 1000.5
20260507220019 11 137 19.3 32.2 0.00 1.63 1.63 85 1000.7
20260507214514 11 128 17.7 27.4 0.00 1.63 1.63 85 1000.7
20260507213026 11 131 19.3 29.0 0.00 1.63 1.63 85 1000.7
20260507211513 11 123 25.7 37.0 0.00 1.63 1.63 85 1000.6
20260507210028 11 105 22.5 33.8 0.00 1.63 1.63 85 1000.6
20260507204510 11 135 22.5 38.6 0.03 1.63 1.63 86 1000.7
20260507203017 11 151 20.9 32.2 0.15 1.63 1.63 86 1001.0
20260507201514 12 103 20.9 32.2 0.30 1.63 1.63 86 1000.3
20260507200016 12 112 19.3 37.0 0.38 1.63 1.63 86 1000.3
20260507194506 12 114 20.9 32.2 0.43 1.60 1.60 86 1000.6
20260507193132 12 135 20.9 33.8 0.43 1.45 1.45 86 1001.2
20260507191601 12 131 25.7 41.8 0.38 1.30 1.30 86 1002.4
20260507190056 12 137 20.9 33.8 0.48 1.22 1.22 86 1002.6
20260507184555 12 122 20.9 37.0 0.66 1.17 1.17 86 1002.3
20260507183100 12 158 20.9 30.6 0.84 1.04 1.04 86 1003.1
20260507181551 12 137 20.9 41.8 0.86 0.91 0.91 86 1002.9
20260507180049 12 207 17.7 32.2 0.71 0.71 0.71 85 1003.6
20260507174547 12 187 16.1 30.6 0.48 0.51 0.51 85 1003.9
20260507173105 12 199 14.5 37.0 0.15 0.18 0.18 84 1003.7
20260507171545 13 141 14.5 33.8 0.03 0.05 0.05 84 1003.0
20260507170047 13 120 19.3 33.8 0.00 0.03 0.03 83 1002.6
20260507164541 14 176 29.0 51.5 0.00 0.03 0.03 82 1002.5